Location: Godiavel Galaoual
(15.2485°N, 12.6604°W)
Time: 15:58:49
(UTC+00:00)

Hubble Space Telescope - Visible Passes

Search period start: 04 June 2020 00:00
Search period end: 14 June 2020 00:00
Orbit: 536 x 540 km, 28.5° (Epoch: 04 June)

Date Brightness Start Highest point End Pass type
(mag) Time Alt. Az. Time Alt. Az. Time Alt. Az.
04 Jun 0.6 20:55:05 10° WNW 20:59:13 75° SSW 20:59:18 74° SSW visible
05 Jun 1.1 20:44:30 10° WNW 20:48:32 53° SSW 20:49:12 47° S visible
06 Jun 1.6 20:33:58 10° W 20:37:50 38° SSW 20:39:09 29° SSE visible
07 Jun 2.2 20:23:34 10° W 20:27:07 28° SSW 20:29:07 19° SSE visible
08 Jun 2.7 20:13:19 10° W 20:16:25 20° SSW 20:19:08 12° SSE visible
09 Jun 3.1 20:03:19 10° WSW 20:05:42 15° SSW 20:08:05 10° S visible
10 Jun 3.3 19:54:05 10° SW 19:54:59 11° SSW 19:55:54 10° SSW visible
